Time,TemperatureF,DewpointF,PressureIn,WindDirection,WindDirectionDegrees,WindSpeedMPH,WindSpeedGustMPH,Humidity,HourlyPrecipIn,Conditions,Clouds,dailyrainin,SoftwareType,DateUTC
2013-09-02 00:01:00,72.8,72.8,29.85,NNE,30,0.0,0.0,100,0.00,,OVC009,0.08,VWS V14.01,2013-09-02 04:01:00,
2013-09-02 00:02:00,72.9,72.9,29.86,NNE,30,0.0,0.0,100,0.00,,OVC009,0.08,VWS V14.01,2013-09-02 04:02:00,
2013-09-02 00:04:00,72.9,72.9,29.85,NNE,30,0.0,0.0,100,0.00,,OVC009,0.00,VWS V14.01,2013-09-02 04:04:00,
2013-09-02 00:05:00,72.8,72.8,29.85,NNE,30,0.0,0.0,100,0.00,,OVC009,0.00,VWS V14.01,2013-09-02 04:05:00,
2013-09-02 00:10:00,72.9,72.9,29.86,NNE,30,0.0,0.0,100,0.00,,OVC009,0.00,VWS V14.01,2013-09-02 04:10:00,
2013-09-02 00:16:00,72.8,72.8,29.85,NNE,30,0.0,0.0,100,0.00,,OVC009,0.00,VWS V14.01,2013-09-02 04:16:00,
2013-09-02 00:21:00,72.9,72.9,29.84,NNE,30,0.0,0.0,100,0.00,,OVC009,0.00,VWS V14.01,2013-09-02 04:21:00,
2013-09-02 00:26:00,72.8,72.8,29.84,NNE,30,0.0,0.0,100,0.00,,OVC009,0.00,VWS V14.01,2013-09-02 04:26:00,
2013-09-02 00:31:00,72.9,72.9,29.84,NNE,30,0.0,0.0,100,0.00,,OVC009,0.00,VWS V14.01,2013-09-02 04:31:00,
2013-09-02 00:36:00,72.9,72.9,29.85,NNE,30,0.0,0.0,100,0.00,,OVC009,0.00,VWS V14.01,2013-09-02 04:36:00,
2013-09-02 00:41:00,72.9,72.9,29.85,NNE,30,0.0,0.0,100,0.00,,OVC009,0.00,VWS V14.01,2013-09-02 04:41:00,
2013-09-02 00:46:00,73.0,73.0,29.85,NNE,30,0.0,0.0,100,0.00,,OVC009,0.00,VWS V14.01,2013-09-02 04:46:00,
2013-09-02 00:51:00,72.9,72.9,29.85,NNE,30,0.0,0.0,100,0.00,,OVC009,0.00,VWS V14.01,2013-09-02 04:51:00,
2013-09-02 00:56:00,73.0,73.0,29.84,NNE,30,0.0,0.0,100,0.00,,OVC009,0.00,VWS V14.01,2013-09-02 04:56:00,
2013-09-02 01:01:00,73.0,73.0,29.84,NNE,30,0.0,0.0,100,0.00,,OVC009,0.00,VWS V14.01,2013-09-02 05:01:00,
2013-09-02 01:06:00,73.0,73.0,29.84,NNE,30,0.0,0.0,100,0.00,,OVC009,0.00,VWS V14.01,2013-09-02 05:06:00,
2013-09-02 01:11:00,73.0,73.0,29.84,NNE,30,0.0,0.0,100,0.00,,OVC009,0.00,VWS V14.01,2013-09-02 05:11:00,
2013-09-02 01:16:00,72.9,72.9,29.84,NNE,30,0.0,0.0,100,0.00,,OVC009,0.00,VWS V14.01,2013-09-02 05:16:00,
2013-09-02 01:21:00,73.0,73.0,29.84,NNE,30,0.0,0.0,100,0.00,,OVC009,0.00,VWS V14.01,2013-09-02 05:21:00,
2013-09-02 01:26:00,73.1,73.1,29.85,NNE,30,0.0,0.0,100,0.00,,OVC009,0.00,VWS V14.01,2013-09-02 05:26:00,
2013-09-02 01:31:00,73.1,73.1,29.84,NNE,30,0.0,0.0,100,0.00,,OVC009,0.00,VWS V14.01,2013-09-02 05:31:00,
2013-09-02 01:36:00,73.0,73.0,29.84,NNE,30,0.0,0.0,100,0.00,,OVC009,0.00,VWS V14.01,2013-09-02 05:36:00,
2013-09-02 01:42:00,73.0,73.0,29.84,NNE,30,0.0,0.0,100,0.00,,OVC009,0.00,VWS V14.01,2013-09-02 05:42:00,
2013-09-02 01:47:00,73.1,73.1,29.85,NNE,30,0.0,0.0,100,0.00,,OVC009,0.00,VWS V14.01,2013-09-02 05:47:00,
2013-09-02 01:52:00,73.1,73.1,29.84,NNE,30,0.0,0.0,100,0.00,,OVC009,0.00,VWS V14.01,2013-09-02 05:52:00,
2013-09-02 01:57:00,73.1,73.1,29.84,NNE,30,0.0,0.0,100,0.00,,OVC009,0.00,VWS V14.01,2013-09-02 05:57:00,
2013-09-02 02:02:00,73.0,73.0,29.84,NNE,30,0.0,0.0,100,0.00,,,0.00,VWS V14.01,2013-09-02 06:02:00,
2013-09-02 02:07:00,73.0,73.0,29.84,NNE,30,0.0,0.0,100,0.00,,,0.00,VWS V14.01,2013-09-02 06:07:00,
2013-09-02 02:12:00,73.1,73.1,29.84,NNE,30,0.0,0.0,100,0.00,,,0.00,VWS V14.01,2013-09-02 06:12:00,
2013-09-02 02:17:00,73.2,73.2,29.84,NNE,30,0.0,0.0,100,0.00,,,0.00,VWS V14.01,2013-09-02 06:17:00,
2013-09-02 02:22:00,73.2,73.2,29.84,NNE,30,0.0,0.0,100,0.00,,,0.00,VWS V14.01,2013-09-02 06:22:00,
2013-09-02 02:27:00,73.1,73.1,29.83,NNE,30,0.0,0.0,100,0.00,,,0.00,VWS V14.01,2013-09-02 06:27:00,
2013-09-02 02:32:00,73.1,73.1,29.84,NNE,30,0.0,0.0,100,0.00,,,0.00,VWS V14.01,2013-09-02 06:32:00,
2013-09-02 02:37:00,73.2,73.2,29.84,NNE,30,0.0,0.0,100,0.00,,,0.00,VWS V14.01,2013-09-02 06:37:00,
2013-09-02 02:42:00,73.2,73.2,29.84,NNE,30,0.0,0.0,100,0.00,,,0.00,VWS V14.01,2013-09-02 06:42:00,
2013-09-02 02:47:00,73.1,73.1,29.83,NNE,30,0.0,0.0,100,0.00,,,0.00,VWS V14.01,2013-09-02 06:47:00,
2013-09-02 02:52:00,73.1,73.1,29.83,NNE,30,0.0,0.0,100,0.00,,,0.00,VWS V14.01,2013-09-02 06:52:00,
2013-09-02 02:57:00,73.0,73.0,29.83,NNE,30,0.0,0.0,100,0.00,,,0.00,VWS V14.01,2013-09-02 06:57:00,
2013-09-02 03:02:00,73.2,73.2,29.83,NNE,30,0.0,0.0,100,0.00,,,0.00,VWS V14.01,2013-09-02 07:02:00,
2013-09-02 03:07:00,73.2,73.2,29.83,NNE,30,0.0,0.0,100,0.00,,,0.00,VWS V14.01,2013-09-02 07:07:00,
2013-09-02 03:12:00,73.1,73.1,29.82,NNE,30,0.0,0.0,100,0.00,,,0.00,VWS V14.01,2013-09-02 07:12:00,
2013-09-02 03:18:00,72.9,72.9,29.82,NNE,30,0.0,0.0,100,0.00,,,0.00,VWS V14.01,2013-09-02 07:18:00,
2013-09-02 03:23:00,73.1,73.1,29.82,NNE,30,0.0,0.0,100,0.00,,,0.00,VWS V14.01,2013-09-02 07:23:00,
2013-09-02 03:28:00,73.2,73.2,29.82,NNE,30,0.0,0.0,100,0.00,,,0.00,VWS V14.01,2013-09-02 07:28:00,
2013-09-02 03:33:00,73.2,73.2,29.82,NNE,30,0.0,0.0,100,0.00,,,0.00,VWS V14.01,2013-09-02 07:33:00,
2013-09-02 03:38:00,73.1,73.1,29.82,NNE,30,0.0,0.0,100,0.00,,,0.00,VWS V14.01,2013-09-02 07:38:00,
2013-09-02 03:43:00,73.0,73.0,29.81,NNE,30,0.0,0.0,100,0.00,,,0.00,VWS V14.01,2013-09-02 07:43:00,
2013-09-02 03:48:00,73.1,73.1,29.81,NNE,30,0.0,0.0,100,0.00,,,0.00,VWS V14.01,2013-09-02 07:48:00,
2013-09-02 03:53:00,73.1,73.1,29.82,NNE,30,0.0,0.0,100,0.00,,,0.00,VWS V14.01,2013-09-02 07:53:00,
2013-09-02 03:58:00,73.2,73.2,29.82,NNE,30,0.0,0.0,100,0.00,,,0.00,VWS V14.01,2013-09-02 07:58:00,
2013-09-02 04:03:00,73.0,73.0,29.81,NNE,30,0.0,0.0,100,0.00,,,0.00,VWS V14.01,2013-09-02 08:03:00,
2013-09-02 04:08:00,73.0,73.0,29.81,NNE,30,0.0,0.0,100,0.00,,,0.00,VWS V14.01,2013-09-02 08:08:00,
2013-09-02 04:13:00,73.1,73.1,29.81,NNE,30,0.0,0.0,100,0.00,,,0.00,VWS V14.01,2013-09-02 08:13:00,
2013-09-02 04:18:00,73.1,73.1,29.81,NNE,30,0.0,0.0,100,0.00,,,0.00,VWS V14.01,2013-09-02 08:18:00,
2013-09-02 04:23:00,73.1,73.1,29.81,NNE,30,0.0,0.0,100,0.00,,,0.00,VWS V14.01,2013-09-02 08:23:00,
2013-09-02 04:28:00,73.1,73.1,29.80,NNE,30,0.0,0.0,100,0.01,,,0.01,VWS V14.01,2013-09-02 08:28:00,
2013-09-02 04:33:00,73.1,73.1,29.80,NNE,30,0.0,0.0,100,0.01,,,0.01,VWS V14.01,2013-09-02 08:33:00,
2013-09-02 04:38:00,73.1,73.1,29.81,NNE,30,0.0,0.0,100,0.01,,,0.01,VWS V14.01,2013-09-02 08:38:00,
2013-09-02 04:43:00,73.1,73.1,29.81,NNE,30,0.0,0.0,100,0.01,,,0.01,VWS V14.01,2013-09-02 08:43:00,
2013-09-02 04:49:00,73.2,73.2,29.81,NNE,30,0.0,0.0,100,0.01,,,0.01,VWS V14.01,2013-09-02 08:49:00,
2013-09-02 04:54:00,73.2,73.2,29.80,NNE,30,0.0,0.0,100,0.01,,,0.01,VWS V14.01,2013-09-02 08:54:00,
2013-09-02 04:59:00,73.2,73.2,29.80,NNE,30,0.0,0.0,100,0.01,,,0.01,VWS V14.01,2013-09-02 08:59:00,
2013-09-02 05:04:00,73.2,73.2,29.81,NNE,30,0.0,0.0,100,0.01,,,0.01,VWS V14.01,2013-09-02 09:04:00,
2013-09-02 05:09:00,73.2,73.2,29.82,NNE,30,0.0,0.0,100,0.01,,,0.01,VWS V14.01,2013-09-02 09:09:00,
2013-09-02 05:14:00,73.1,73.1,29.82,NNE,30,0.0,0.0,100,0.01,,,0.01,VWS V14.01,2013-09-02 09:14:00,
2013-09-02 05:19:00,73.0,73.0,29.81,NNE,30,0.0,0.0,100,0.01,,,0.01,VWS V14.01,2013-09-02 09:19:00,
2013-09-02 05:24:00,72.9,72.9,29.81,NNE,30,0.0,0.0,100,0.01,,,0.01,VWS V14.01,2013-09-02 09:24:00,
2013-09-02 05:29:00,73.0,73.0,29.82,NNE,30,0.0,0.0,100,0.01,,,0.01,VWS V14.01,2013-09-02 09:29:00,
2013-09-02 05:34:00,72.9,72.9,29.82,NNE,30,0.0,0.0,100,0.00,,,0.01,VWS V14.01,2013-09-02 09:34:00,
2013-09-02 05:39:00,72.9,72.9,29.82,NNE,30,0.0,0.0,100,0.00,,,0.01,VWS V14.01,2013-09-02 09:39:00,
2013-09-02 05:44:00,72.9,72.9,29.82,NNE,30,0.0,0.0,100,0.00,,,0.01,VWS V14.01,2013-09-02 09:44:00,
2013-09-02 05:49:00,72.8,72.8,29.82,NNE,30,0.0,0.0,100,0.00,,,0.01,VWS V14.01,2013-09-02 09:49:00,
2013-09-02 05:54:00,72.9,72.9,29.82,NNE,30,0.0,0.0,100,0.00,,,0.01,VWS V14.01,2013-09-02 09:54:00,
2013-09-02 05:59:00,72.9,72.9,29.82,NNE,30,0.0,0.0,100,0.00,,,0.01,VWS V14.01,2013-09-02 09:59:00,
2013-09-02 06:04:00,72.9,72.9,29.82,NNE,30,0.0,0.0,100,0.00,,,0.01,VWS V14.01,2013-09-02 10:04:00,
2013-09-02 06:09:00,72.8,72.8,29.82,NNE,30,0.0,0.0,100,0.00,,,0.01,VWS V14.01,2013-09-02 10:09:00,
2013-09-02 06:14:00,72.7,72.7,29.81,NNE,30,0.0,0.0,100,0.00,,,0.01,VWS V14.01,2013-09-02 10:14:00,
2013-09-02 06:19:00,72.7,72.7,29.82,NNE,30,0.0,0.0,100,0.00,,,0.01,VWS V14.01,2013-09-02 10:19:00,
2013-09-02 06:24:00,72.7,72.7,29.82,NNE,30,0.0,0.0,100,0.00,,,0.01,VWS V14.01,2013-09-02 10:24:00,
2013-09-02 06:30:00,72.5,72.5,29.82,NNE,30,0.0,0.0,100,0.00,,,0.01,VWS V14.01,2013-09-02 10:30:00,
2013-09-02 06:35:00,72.4,72.4,29.81,NNE,30,0.0,0.0,100,0.00,,,0.01,VWS V14.01,2013-09-02 10:35:00,
2013-09-02 06:40:00,72.4,72.4,29.81,NNE,30,0.0,0.0,100,0.00,,,0.01,VWS V14.01,2013-09-02 10:40:00,
2013-09-02 06:45:00,72.4,72.4,29.82,NNE,30,0.0,0.0,100,0.00,,,0.01,VWS V14.01,2013-09-02 10:45:00,
2013-09-02 06:50:00,72.6,72.6,29.82,NNE,30,0.0,0.0,100,0.00,,,0.01,VWS V14.01,2013-09-02 10:50:00,
2013-09-02 06:55:00,72.5,72.5,29.82,NNE,30,0.0,0.0,100,0.00,,,0.01,VWS V14.01,2013-09-02 10:55:00,
2013-09-02 07:00:00,72.5,72.5,29.82,NNE,30,0.0,0.0,100,0.00,,,0.01,VWS V14.01,2013-09-02 11:00:00,
2013-09-02 07:05:00,72.5,72.5,29.82,NNE,30,0.0,0.0,100,0.00,,,0.01,VWS V14.01,2013-09-02 11:05:00,
2013-09-02 07:10:00,72.6,72.6,29.82,NNE,30,0.0,0.0,100,0.00,,,0.01,VWS V14.01,2013-09-02 11:10:00,
2013-09-02 07:15:00,72.6,72.6,29.82,NNE,30,0.0,0.0,100,0.00,,,0.01,VWS V14.01,2013-09-02 11:15:00,
2013-09-02 07:20:00,72.6,72.6,29.81,NNE,30,0.0,0.0,100,0.00,,,0.01,VWS V14.01,2013-09-02 11:20:00,
2013-09-02 07:25:00,72.6,72.6,29.81,NNE,30,0.0,0.0,100,0.00,,,0.01,VWS V14.01,2013-09-02 11:25:00,
2013-09-02 07:30:00,72.6,72.6,29.82,NNE,30,0.0,0.0,100,0.00,,,0.01,VWS V14.01,2013-09-02 11:30:00,
2013-09-02 07:35:00,72.7,72.7,29.83,NNE,30,0.0,0.0,100,0.00,,,0.01,VWS V14.01,2013-09-02 11:35:00,
2013-09-02 07:40:00,72.7,72.7,29.83,NNE,30,0.0,0.0,100,0.00,,,0.01,VWS V14.01,2013-09-02 11:40:00,
2013-09-02 07:45:00,72.8,72.8,29.82,NNE,30,0.0,0.0,100,0.00,,,0.01,VWS V14.01,2013-09-02 11:45:00,
2013-09-02 07:50:00,72.8,72.8,29.82,NNE,30,0.0,0.0,100,0.00,,,0.01,VWS V14.01,2013-09-02 11:50:00,
2013-09-02 07:55:00,73.0,73.0,29.82,NNE,30,0.0,0.0,100,0.00,,,0.01,VWS V14.01,2013-09-02 11:55:00,
2013-09-02 08:01:00,73.0,73.0,29.82,NNE,30,0.0,0.0,100,0.00,,,0.01,VWS V14.01,2013-09-02 12:01:00,
2013-09-02 08:06:00,73.1,73.1,29.82,NNE,30,0.0,0.0,100,0.00,,,0.01,VWS V14.01,2013-09-02 12:06:00,
2013-09-02 08:11:00,73.1,73.1,29.82,NNE,30,0.0,0.0,100,0.00,,,0.01,VWS V14.01,2013-09-02 12:11:00,
2013-09-02 08:16:00,73.0,73.0,29.82,NNE,30,0.0,0.0,100,0.00,,,0.01,VWS V14.01,2013-09-02 12:16:00,
2013-09-02 08:21:00,73.1,73.1,29.82,NNE,30,0.0,0.0,100,0.00,,,0.01,VWS V14.01,2013-09-02 12:21:00,
2013-09-02 08:26:00,73.1,73.1,29.82,NNE,30,0.0,0.0,100,0.00,,,0.01,VWS V14.01,2013-09-02 12:26:00,
2013-09-02 08:31:00,73.2,73.2,29.82,NNE,30,0.0,0.0,100,0.00,,,0.01,VWS V14.01,2013-09-02 12:31:00,
2013-09-02 08:36:00,73.1,73.1,29.82,NNE,30,0.0,0.0,100,0.00,,,0.01,VWS V14.01,2013-09-02 12:36:00,
2013-09-02 08:41:00,73.1,73.1,29.82,NNE,30,0.0,0.0,100,0.00,,,0.01,VWS V14.01,2013-09-02 12:41:00,
2013-09-02 08:46:00,73.1,73.1,29.82,NNE,30,0.0,0.0,100,0.00,,,0.01,VWS V14.01,2013-09-02 12:46:00,
2013-09-02 08:51:00,73.1,73.1,29.82,NNE,30,0.0,0.0,100,0.00,,,0.01,VWS V14.01,2013-09-02 12:51:00,
2013-09-02 08:56:00,73.3,73.3,29.82,NNE,30,0.0,0.0,100,0.00,,,0.01,VWS V14.01,2013-09-02 12:56:00,
2013-09-02 09:01:00,73.3,73.3,29.81,NNE,30,0.0,0.0,100,0.00,,,0.01,VWS V14.01,2013-09-02 13:01:00,
2013-09-02 09:06:00,73.4,73.4,29.81,NNE,30,0.0,0.0,100,0.00,,,0.01,VWS V14.01,2013-09-02 13:06:00,
2013-09-02 09:11:00,73.6,73.6,29.82,NNE,30,0.0,0.0,100,0.00,,,0.01,VWS V14.01,2013-09-02 13:11:00,
2013-09-02 09:16:00,73.7,73.7,29.82,NNE,30,0.0,0.0,100,0.00,,,0.01,VWS V14.01,2013-09-02 13:16:00,
2013-09-02 09:21:00,73.8,73.8,29.82,NNE,30,0.0,0.0,100,0.00,,,0.01,VWS V14.01,2013-09-02 13:21:00,
2013-09-02 09:26:00,73.9,73.9,29.82,NNE,30,0.0,0.0,100,0.00,,,0.01,VWS V14.01,2013-09-02 13:26:00,
2013-09-02 09:31:00,73.9,73.9,29.82,NNE,30,0.0,0.0,100,0.00,,,0.01,VWS V14.01,2013-09-02 13:31:00,
2013-09-02 09:36:00,74.1,74.1,29.83,NNE,30,0.0,0.0,100,0.00,,,0.01,VWS V14.01,2013-09-02 13:36:00,
2013-09-02 09:41:00,74.2,74.2,29.83,NNE,30,0.0,0.0,100,0.00,,,0.01,VWS V14.01,2013-09-02 13:41:00,
2013-09-02 09:47:00,74.5,74.5,29.83,NNE,30,0.0,0.0,100,0.00,,,0.01,VWS V14.01,2013-09-02 13:47:00,
2013-09-02 09:52:00,74.6,74.6,29.82,NNE,30,0.0,0.0,100,0.00,,,0.01,VWS V14.01,2013-09-02 13:52:00,
2013-09-02 09:57:00,74.6,74.6,29.82,NNE,30,0.0,0.0,100,0.00,,,0.01,VWS V14.01,2013-09-02 13:57:00,
2013-09-02 10:02:00,74.7,74.7,29.82,NNE,30,0.0,0.0,100,0.00,,,0.01,VWS V14.01,2013-09-02 14:02:00,
2013-09-02 10:07:00,74.7,74.7,29.83,NNE,30,0.0,0.0,100,0.00,,,0.01,VWS V14.01,2013-09-02 14:07:00,
2013-09-02 10:12:00,74.9,74.9,29.83,NNE,30,0.0,0.0,100,0.00,,,0.01,VWS V14.01,2013-09-02 14:12:00,
2013-09-02 10:17:00,75.0,75.0,29.82,NNE,30,0.0,0.0,100,0.00,,,0.01,VWS V14.01,2013-09-02 14:17:00,
2013-09-02 10:22:00,75.1,75.1,29.82,NNE,30,0.0,0.0,100,0.00,,,0.01,VWS V14.01,2013-09-02 14:22:00,
2013-09-02 10:27:00,75.1,75.1,29.83,NNE,30,0.0,0.0,100,0.00,,,0.01,VWS V14.01,2013-09-02 14:27:00,
2013-09-02 10:32:00,75.2,75.2,29.83,NNE,30,0.0,0.0,100,0.00,,,0.01,VWS V14.01,2013-09-02 14:32:00,
2013-09-02 10:37:00,75.4,75.4,29.82,NNE,30,0.0,0.0,100,0.00,,,0.01,VWS V14.01,2013-09-02 14:37:00,
2013-09-02 10:42:00,75.3,75.3,29.82,NNE,30,0.0,0.0,100,0.00,,,0.01,VWS V14.01,2013-09-02 14:42:00,
2013-09-02 10:47:00,75.9,75.9,29.82,NNE,30,0.0,0.0,100,0.00,,,0.01,VWS V14.01,2013-09-02 14:47:00,
2013-09-02 10:52:00,75.9,75.9,29.82,NNE,30,0.0,0.0,100,0.00,,,0.01,VWS V14.01,2013-09-02 14:52:00,
2013-09-02 10:57:00,76.0,76.0,29.82,NNE,30,0.0,0.0,100,0.00,,,0.01,VWS V14.01,2013-09-02 14:57:00,
2013-09-02 11:02:00,75.9,75.9,29.82,NNE,30,0.0,0.0,100,0.00,,-RA,0.01,VWS V14.01,2013-09-02 15:02:00,
2013-09-02 11:08:00,75.7,75.7,29.81,NNE,30,0.0,0.0,100,0.00,,-RA,0.01,VWS V14.01,2013-09-02 15:08:00,
2013-09-02 11:13:00,75.9,75.9,29.81,NNE,30,0.0,0.0,100,0.00,,-RA,0.01,VWS V14.01,2013-09-02 15:13:00,
2013-09-02 11:18:00,76.1,76.1,29.82,NNE,30,0.0,0.0,100,0.00,,-RA,0.01,VWS V14.01,2013-09-02 15:18:00,
2013-09-02 11:23:00,76.2,76.2,29.82,NNE,30,0.0,0.0,100,0.00,,-RA,0.01,VWS V14.01,2013-09-02 15:23:00,
2013-09-02 11:28:00,76.8,76.8,29.82,NNE,30,0.0,0.0,100,0.00,,-RA,0.01,VWS V14.01,2013-09-02 15:28:00,
2013-09-02 11:33:00,76.9,76.9,29.81,NNE,30,0.0,0.0,100,0.00,,-RA,0.01,VWS V14.01,2013-09-02 15:33:00,
2013-09-02 11:38:00,76.6,76.6,29.81,NNE,30,0.0,0.0,100,0.00,,-RA,0.01,VWS V14.01,2013-09-02 15:38:00,
2013-09-02 11:43:00,76.8,76.8,29.81,NNE,30,0.0,0.0,100,0.00,,-RA,0.01,VWS V14.01,2013-09-02 15:43:00,
2013-09-02 11:48:00,77.1,77.1,29.82,NNE,30,0.0,0.0,100,0.00,,-RA,0.01,VWS V14.01,2013-09-02 15:48:00,
2013-09-02 11:53:00,77.2,77.2,29.81,NNE,30,0.0,0.0,100,0.00,,-RA,0.01,VWS V14.01,2013-09-02 15:53:00,
2013-09-02 11:58:00,77.5,77.5,29.80,NNE,30,0.0,0.0,100,0.00,,-RA,0.01,VWS V14.01,2013-09-02 15:58:00,
2013-09-02 12:03:00,77.7,77.7,29.81,NNE,30,0.0,0.0,100,0.00,,CLR,0.01,VWS V14.01,2013-09-02 16:03:00,
2013-09-02 12:08:00,77.8,77.8,29.81,NNE,30,0.0,0.0,100,0.00,,CLR,0.01,VWS V14.01,2013-09-02 16:08:00,
2013-09-02 12:13:00,78.0,78.0,29.81,NNE,30,0.0,0.0,100,0.00,,CLR,0.01,VWS V14.01,2013-09-02 16:13:00,
2013-09-02 12:18:00,78.1,78.1,29.81,NNE,30,0.0,0.0,100,0.00,,CLR,0.01,VWS V14.01,2013-09-02 16:18:00,
2013-09-02 12:23:00,78.2,78.2,29.80,NNE,30,0.0,0.0,100,0.00,,CLR,0.01,VWS V14.01,2013-09-02 16:23:00,
2013-09-02 12:29:00,78.2,78.1,29.80,NNE,30,0.0,0.0,100,0.00,,CLR,0.01,VWS V14.01,2013-09-02 16:29:00,
2013-09-02 12:34:00,78.5,77.9,29.80,NNE,30,0.0,0.0,98,0.00,,CLR,0.01,VWS V14.01,2013-09-02 16:34:00,
2013-09-02 12:39:00,78.9,78.5,29.80,NNE,30,0.0,0.0,99,0.00,,CLR,0.01,VWS V14.01,2013-09-02 16:39:00,
2013-09-02 12:44:00,79.2,78.7,29.79,NNE,30,0.0,0.0,98,0.00,,CLR,0.01,VWS V14.01,2013-09-02 16:44:00,
2013-09-02 12:49:00,79.1,78.0,29.79,NNE,30,0.0,0.0,96,0.00,,CLR,0.01,VWS V14.01,2013-09-02 16:49:00,
2013-09-02 12:54:00,79.3,77.7,29.79,NNE,30,0.0,0.0,95,0.00,,CLR,0.01,VWS V14.01,2013-09-02 16:54:00,
2013-09-02 12:59:00,79.4,77.9,29.79,NNE,30,0.0,0.0,95,0.00,,CLR,0.01,VWS V14.01,2013-09-02 16:59:00,
2013-09-02 13:04:00,79.3,77.8,29.79,NNE,30,0.0,0.0,95,0.00,,FEW030,0.01,VWS V14.01,2013-09-02 17:04:00,
2013-09-02 13:09:00,79.3,77.6,29.79,NNE,30,0.0,0.0,94,0.00,,FEW030,0.01,VWS V14.01,2013-09-02 17:09:00,
2013-09-02 13:14:00,79.1,77.1,29.79,NNE,30,0.0,0.0,94,0.00,,FEW030,0.01,VWS V14.01,2013-09-02 17:14:00,
2013-09-02 13:19:00,79.0,76.7,29.79,NNE,30,0.0,0.0,93,0.00,,FEW030,0.01,VWS V14.01,2013-09-02 17:19:00,
2013-09-02 13:24:00,79.3,77.1,29.78,NNE,30,0.0,0.0,93,0.00,,FEW030,0.01,VWS V14.01,2013-09-02 17:24:00,
2013-09-02 13:29:00,79.3,77.1,29.78,NNE,30,0.0,0.0,93,0.00,,FEW030,0.01,VWS V14.01,2013-09-02 17:29:00,
2013-09-02 13:34:00,79.4,77.3,29.79,NNE,30,0.0,0.0,93,0.00,,FEW030,0.01,VWS V14.01,2013-09-02 17:34:00,
2013-09-02 13:39:00,79.2,77.1,29.78,NNE,30,0.0,0.0,93,0.00,,FEW030,0.01,VWS V14.01,2013-09-02 17:39:00,
2013-09-02 13:44:00,79.3,77.3,29.78,NNE,30,0.0,0.0,94,0.00,,FEW030,0.01,VWS V14.01,2013-09-02 17:44:00,
2013-09-02 13:50:00,79.1,76.8,29.79,NNE,30,0.0,0.0,93,0.00,,FEW030,0.01,VWS V14.01,2013-09-02 17:50:00,
2013-09-02 13:55:00,78.7,76.2,29.78,NNE,30,0.0,0.0,92,0.00,,FEW030,0.01,VWS V14.01,2013-09-02 17:55:00,
2013-09-02 14:00:00,78.7,76.2,29.78,NNE,30,0.0,0.0,92,0.00,,FEW030,0.01,VWS V14.01,2013-09-02 18:00:00,
2013-09-02 14:05:00,78.8,76.5,29.79,NNE,30,0.0,0.0,93,0.00,,BKN110,0.01,VWS V14.01,2013-09-02 18:05:00,
2013-09-02 14:10:00,78.8,76.6,29.79,NNE,30,0.0,0.0,93,0.00,,BKN110,0.01,VWS V14.01,2013-09-02 18:10:00,
2013-09-02 14:15:00,78.3,75.9,29.79,NNE,30,0.0,0.0,92,0.00,,BKN110,0.01,VWS V14.01,2013-09-02 18:15:00,
2013-09-02 14:20:00,78.3,76.2,29.78,NNE,30,0.0,0.0,93,0.00,,BKN110,0.01,VWS V14.01,2013-09-02 18:20:00,
2013-09-02 14:25:00,78.1,76.0,29.78,NNE,30,0.0,0.0,93,0.00,,BKN110,0.01,VWS V14.01,2013-09-02 18:25:00,
2013-09-02 14:30:00,78.0,76.1,29.78,NNE,30,0.0,0.0,94,0.00,,BKN110,0.01,VWS V14.01,2013-09-02 18:30:00,
2013-09-02 14:35:00,77.8,75.8,29.78,NNE,30,0.0,0.0,94,0.00,,BKN110,0.01,VWS V14.01,2013-09-02 18:35:00,